Flight Track Log - Related Links

Times and Time Zones

All times are in EDT time to prevent confusion due to time zone crossing. See the N521LL flight status page for this flight to view local times or setup timezone preferences in your user account.

Time Position Orientation Groundspeed Altitude Reporting Facility
EDT Latitude Longitude Course Direction KTS MPH feet Rate Location/Type
Sun 15:53:20 32.8000 -96.8167 140° Southeast 194 223 3,100  Level Dallas / Fort Worth TRACON
Sun 15:55:06 32.7147 -96.7269 138° Southeast 120 138 7,500 2,566 Climbing Fort Worth Center
Sun 15:56:06 32.6994 -96.6431 102° East 245 282 10,200 2,650 Climbing Fort Worth Center
Sun 15:57:06 32.7197 -96.5492 76° East 260 299 12,800 2,700 Climbing Fort Worth Center
Sun 15:58:00 32.7728 -96.4417 102° East  Level FlightAware Approximate
Sun 15:58:06 32.7378 -96.4503 78° East 293 337 15,600  Level Fort Worth Center
Sun 15:59:06 32.7581 -96.3611 75° East 304 350 17,500 1,950 Climbing Fort Worth Center
Sun 16:00:06 32.7486 -96.2450 95° East 311 358 19,500 1,850 Climbing Fort Worth Center
Sun 16:01:06 32.7311 -96.1489 102° East 326 375 21,200 1,700 Climbing Fort Worth Center
Sun 16:02:06 32.7131 -96.0283 100° East 332 382 22,900 1,550 Climbing Fort Worth Center
Sun 16:03:06 32.6950 -95.9150 101° East 347 399 24,300 1,450 Climbing Fort Worth Center
Sun 16:04:06 32.6789 -95.7992 99° East 357 411 25,800 1,650 Climbing Fort Worth Center
Sun 16:05:06 32.6608 -95.6836 100° East 357 411 27,600 1,750 Climbing Fort Worth Center
Sun 16:06:06 32.6653 -95.5675 87° East 351 404 29,300 1,750 Climbing Fort Worth Center
Sun 16:07:06 32.6700 -95.4539 87° East 346 398 31,100 1,900 Climbing Fort Worth Center
Sun 16:08:06 32.6828 -95.3378 83° East 346 398 33,100 1,750 Climbing Fort Worth Center
Sun 16:09:06 32.6811 -95.2414 91° East 346 398 34,600 1,450 Climbing Fort Worth Center
Sun 16:10:06 32.6917 -95.1325 83° East 340 391 36,000 1,200 Climbing Fort Worth Center
Sun 16:11:06 32.6939 -95.0264 89° East 335 386 37,000 500 Climbing Fort Worth Center
Sun 16:12:06 32.7042 -94.9075 84° East 330 380 37,000  Level Fort Worth Center
Sun 16:13:06 32.6931 -94.7819 96° East 352 405 37,000  Level Fort Worth Center
Sun 16:14:06 32.6261 -94.6756 127° Southeast 365 420 37,000  Level Fort Worth Center
Sun 16:15:06 32.5547 -94.5592 126° Southeast 397 457 37,000  Level Fort Worth Center
Sun 16:16:06 32.4831 -94.4408 126° Southeast 420 483 37,000  Level Fort Worth Center
Sun 16:17:06 32.4133 -94.3225 125° Southeast 437 503 37,000  Level Fort Worth Center
Sun 16:18:06 32.3394 -94.2022 126° Southeast 447 514 37,000  Level Fort Worth Center
Sun 16:19:06 32.2631 -94.0772 126° Southeast 453 521 37,000  Level Fort Worth Center
Sun 16:21:21 32.1044 -93.8200 126° Southeast 457 526 37,000  Level Houston Center
Sun 16:22:23 32.0264 -93.6967 127° Southeast 461 531 37,000  Level Houston Center
Sun 16:23:25 31.9356 -93.5503 126° Southeast 460 529 37,000  Level Houston Center
Sun 16:24:27 31.8594 -93.4275 126° Southeast 464 534 37,000  Level Houston Center
Sun 16:25:29 31.7814 -93.3072 127° Southeast 464 534 37,000  Level Houston Center
Sun 16:26:31 31.7022 -93.1636 123° Southeast 472 543 37,000  Level Houston Center
Sun 16:27:33 31.6419 -93.0272 117° Southeast 473 544 37,000 -48 Level Houston Center
Sun 16:28:35 31.5800 -92.8908 118° Southeast 472 543 36,900 -823 Descending Houston Center
Sun 16:29:37 31.5214 -92.7522 116° Southeast 475 547 35,300 -1,887 Descending Houston Center
Sun 16:30:39 31.4567 -92.6147 119° Southeast 479 551 33,000 -1,104 Descending Houston Center
Sun 16:31:42 31.3739 -92.5014 131° Southeast 464 534 33,000  Level Houston Center
Sun 16:32:44 31.2903 -92.3869 131° Southeast 461 531 33,000  Level Houston Center
Sun 16:33:46 31.1878 -92.2478 131° Southeast 468 539 33,000  Level Houston Center
Sun 16:34:48 31.1039 -92.1308 130° Southeast 469 540 33,000  Level Houston Center
Sun 16:35:50 31.0225 -92.0206 131° Southeast 466 536 33,000  Level Houston Center
Sun 16:36:52 30.9394 -91.9047 130° Southeast 466 536 33,000  Level Houston Center
Sun 16:37:54 30.8369 -91.7697 131° Southeast 462 532 33,000  Level Houston Center
Sun 16:38:56 30.7547 -91.6531 129° Southeast 467 537 33,000 -435 Level Houston Center
Sun 16:39:58 30.6692 -91.5419 132° Southeast 462 532 32,100 -1,016 Descending Houston Center
Sun 16:41:00 30.5758 -91.4425 137° Southeast 457 526 30,900 -2,032 Descending Houston Center
Sun 16:42:02 30.4725 -91.3408 140° Southeast 448 516 27,900 -2,640 Descending Houston Center
Sun 16:43:05 30.3936 -91.2375 131° Southeast 446 513 25,400 -1,872 Descending Houston Center
Sun 16:44:07 30.4333 -91.1214 68° East 422 486 24,000 -1,065 Descending Houston Center
Sun 16:45:09 30.5044 -91.1572 337° Northwest 322 371 23,200 -1,358 Descending Houston Center
Sun 16:45:53 30.4675 -91.2133 233° Southwest 299 344 21,600 -1,839 Descending Houston Center
Sun 16:46:11 30.4519 -91.2169 191° South 309 356 21,300 -1,500 Descending Houston Center
Sun 16:47:13 30.3650 -91.1550 148° Southeast 326 375 19,600 -1,417 Descending Houston Center
Sun 16:48:18 30.3136 -91.0592 122° Southeast 334 384 18,300 -1,113 Descending Houston Center
Sun 16:49:17 30.3044 -90.9628 96° East 328 377 17,300 -1,240 Descending Houston Center
Sun 16:50:19 30.2792 -90.8647 107° East 320 368 15,800 -1,403 Descending Houston Center
Sun 16:51:21 30.2550 -90.7717 107° East 305 351 14,400 -1,406 Descending Houston Center
Sun 16:52:27 30.2239 -90.6603 108° East 293 337 12,800 -1,645 Descending Houston Center
Sun 16:53:25 30.1917 -90.5856 116° Southeast 278 320 11,000 -1,686 Descending Houston Center
Sun 16:54:28 30.1469 -90.5142 126° Southeast 274 315 9,400 -1,662 Descending Houston Center
Sun 16:55:35 30.0922 -90.4319 128° Southeast 265 305 7,400 -1,820 Descending Houston Center
Sun 16:56:30 30.0631 -90.3658 117° Southeast 259 298 5,700 -1,810 Descending Houston Center
Sun 16:57:31 30.0564 -90.2842 95° East 251 289 3,900 -1,619 Descending Houston Center
Sun 16:58:36 30.0456 -90.2042 99° East 249 287 2,300 -1,039 Descending Houston Center
Sun 16:59:38 30.0267 -90.1361 108° East 232 267 1,700 -387 Descending Houston Center
Sun 17:00:40 30.0072 -90.0797 112° Southeast 203 234 1,500 -581 Descending Houston Center
Sun 17:01:42 30.0028 -90.0367 97° East 162 186 500 -677 Descending Houston Center
Sun 17:02:44 30.0397 -90.0306 North 142 163 100 -387 Descending Houston Center

Login

Don't have an account? Register now (free) for customized features, flight alerts, and more!